Location: Newark
(30.0333°N, 31.2167°E)
Time: 01:57:16
(UTC+00:00)

Vanguard 3 - Pass Details

Date: 22 January 2020
Orbit: 508 x 3263 km, 33.3° (Epoch: 21 February)

Event Time Altitude Azimuth Distance (km) Brightness Sun altitude
Rises 17:27:37 0° 261° (W) 7,222 13.3 -26.8°
Reaches altitude 10° 17:32:34 10° 262° (W) 6,186 12.6 -27.8°
Maximum altitude 17:52:11 81° 350° (N) 2,654 9.5 -32.1°
Enters shadow 17:56:46 54° 68° (ENE) 2,740 9.3 -33.0°
